Location: Fensholt
(55.9856°N, 10.0808°E)
Time: 01:17:35
(UTC+00:00)

Daily predictions for brighter satellites

Satellite Brightness Start Highest point End
(mag) Time Altitude Azimuth Time Altitude Azimuth Time Altitude Azimuth
STARLINK-1364 3.0 00:00:18 10° WSW 00:03:20 48° S 00:06:23 10° ESE
STARLINK-1376 3.0 00:00:38 10° WSW 00:03:40 48° S 00:06:42 10° ESE
STARLINK-1360 3.0 00:00:58 10° WSW 00:04:01 49° S 00:07:03 10° ESE
STARLINK-1361 3.0 00:01:19 10° WSW 00:04:21 48° S 00:07:23 10° ESE
STARLINK-1367 3.0 00:01:35 10° WSW 00:04:38 48° S 00:07:42 10° ESE
Cosmos 1400 Rocket 3.3 00:00:44 10° N 00:04:52 62° ENE 00:08:58 10° SSE
STARLINK-1366 3.0 00:01:58 10° WSW 00:05:00 48° S 00:08:02 10° ESE
Landsat 4 4.2 00:02:35 10° N 00:06:13 51° WNW 00:09:24 13° SW
Cosmos 2227 Rocket 3.5 00:01:43 10° NW 00:06:16 25° WSW 00:10:11 13° SSW
DELTA 2 DEB (DPAF) 4.5 00:03:01 10° SSE 00:07:27 66° ENE 00:11:54 10° NNW
STARLINK-1338 3.6 00:05:17 10° WSW 00:09:11 56° S 00:13:06 10° E
Cosmos 1570 Rocket 4.3 00:04:53 14° S 00:09:19 58° ESE 00:14:31 10° NNE
Cosmos 1763 Rocket 3.4 00:05:58 14° SSW 00:10:25 84° ESE 00:15:31 10° NNE
Cosmos 1709 Rocket 4.1 00:05:05 13° S 00:10:34 79° E 00:16:49 10° NNE
Cosmos 2084 Rocket 4.3 00:07:19 10° WNW 00:11:20 33° SW 00:14:58 12° S
STARLINK-52 3.3 00:08:59 10° W 00:12:02 41° SSW 00:15:05 10° ESE
NOSS 7 (E) 4.4 00:09:44 15° SSW 00:12:19 55° SE 00:15:20 10° ENE
Cosmos 2227 4.3 00:07:06 10° NW 00:12:54 88° WSW 00:18:41 10° SSE
Cosmos 2298 Rocket 4.0 00:08:31 10° NNW 00:13:51 81° WSW 00:19:10 10° SSE
STARLINK-1371 3.5 00:13:36 10° WSW 00:17:30 56° S 00:21:24 10° E
SL-16 R/B 2.9 00:12:17 10° SSE 00:18:24 68° ENE 00:24:35 10° NNW
Cosmos 1844 Rocket 4.4 00:13:59 10° NNW 00:19:10 36° NE 00:24:20 10° ESE
Cosmos 1758 Rocket 3.6 00:15:28 14° S 00:19:12 84° ESE 00:23:42 10° NNE
STARLINK-75 4.5 00:18:02 16° S 00:19:26 21° SSE 00:21:57 10° E
GEOS 3 Rocket 3.8 00:14:53 10° ESE 00:20:08 81° NE 00:25:30 10° NW
CZ-4 R/B 3.9 00:15:53 10° NNE 00:20:39 74° WNW 00:24:50 13° SSW
STARLINK-1341 3.5 00:17:58 10° WSW 00:21:53 57° S 00:25:47 10° ESE
IRAS Rocket 4.3 00:18:05 10° SSE 00:23:38 71° WSW 00:29:11 10° NNW
STARLINK-1374 3.6 00:22:17 10° W 00:26:13 57° S 00:30:10 10° ESE
STARLINK-1444 3.7 00:25:42 10° WSW 00:26:52 18° SW 00:26:52 18° SW
STARLINK 1040 3.3 00:26:21 16° SW 00:27:54 29° SSE 00:30:12 10° E
STARLINK-1452 3.8 00:26:21 10° WSW 00:27:17 16° SW 00:27:17 16° SW
SL-16 R/B 3.9 00:23:54 10° SSE 00:28:09 22° ESE 00:32:25 10° NE
Cosmos 2208 Rocket 4.2 00:23:37 13° SSW 00:28:19 67° ESE 00:33:40 10° NNE
STARLINK-1392 4.3 00:27:10 10° WSW 00:27:26 12° WSW 00:27:26 12° WSW
STARLINK-1399 4.2 00:27:12 10° WSW 00:27:36 13° WSW 00:27:36 13° WSW
STARLINK-1393 4.3 00:27:14 10° WSW 00:27:35 12° WSW 00:27:35 12° WSW
STARLINK-1394 4.3 00:27:16 10° WSW 00:27:36 12° WSW 00:27:36 12° WSW
STARLINK-1397 4.2 00:27:19 10° WSW 00:27:44 13° WSW 00:27:44 13° WSW
STARLINK-1396 4.3 00:27:20 10° WSW 00:27:42 12° WSW 00:27:42 12° WSW
STARLINK-1414 4.4 00:27:20 10° WSW 00:27:36 12° WSW 00:27:36 12° WSW
STARLINK-1408 4.4 00:27:23 10° WSW 00:27:38 12° WSW 00:27:38 12° WSW
STARLINK-1404 4.3 00:27:25 10° WSW 00:27:48 13° WSW 00:27:48 13° WSW
STARLINK-1416 4.3 00:27:26 10° WSW 00:27:43 12° WSW 00:27:43 12° WSW
STARLINK-1415 4.2 00:27:26 10° WSW 00:27:57 13° WSW 00:27:57 13° WSW
STARLINK-1406 4.4 00:27:29 10° WSW 00:27:42 11° WSW 00:27:42 11° WSW
STARLINK-1450 4.2 00:27:28 10° WSW 00:28:00 13° WSW 00:28:00 13° WSW
STARLINK-1401 4.2 00:27:30 10° WSW 00:28:00 13° WSW 00:28:00 13° WSW
STARLINK-1417 4.2 00:27:33 10° WSW 00:28:04 13° WSW 00:28:04 13° WSW
STARLINK-1413 4.2 00:27:34 10° WSW 00:28:05 13° WSW 00:28:05 13° WSW
STARLINK-1402 4.2 00:27:34 10° WSW 00:28:05 13° WSW 00:28:05 13° WSW
STARLINK-1419 4.2 00:27:35 10° WSW 00:28:00 13° WSW 00:28:00 13° WSW
STARLINK-1422 4.2 00:27:41 10° WSW 00:28:09 13° WSW 00:28:09 13° WSW
STARLINK-1453 4.1 00:27:41 10° WSW 00:28:18 14° WSW 00:28:18 14° WSW
STARLINK-1398 4.0 00:27:43 10° WSW 00:28:28 15° SW 00:28:28 15° SW
STARLINK-1420 4.1 00:27:45 10° WSW 00:28:17 14° WSW 00:28:17 14° WSW
STARLINK-1440 4.1 00:27:47 10° WSW 00:28:21 14° WSW 00:28:21 14° WSW
STARLINK-1460 4.1 00:27:47 10° WSW 00:28:20 14° WSW 00:28:20 14° WSW
STARLINK-1436 (VISORSAT) 4.0 00:27:47 10° WSW 00:28:34 15° SW 00:28:34 15° SW
STARLINK-1410 4.2 00:27:52 10° WSW 00:28:22 13° WSW 00:28:22 13° WSW
STARLINK-1423 4.3 00:27:53 10° WSW 00:28:16 12° WSW 00:28:16 12° WSW
STARLINK-1421 4.3 00:27:53 10° WSW 00:28:16 12° WSW 00:28:16 12° WSW
STARLINK-1400 4.2 00:27:52 10° WSW 00:28:24 13° WSW 00:28:24 13° WSW
STARLINK-1454 4.1 00:27:54 10° WSW 00:28:26 13° WSW 00:28:26 13° WSW
STARLINK-1458 4.2 00:27:57 10° WSW 00:28:24 13° WSW 00:28:24 13° WSW
CZ-2D R/B 3.3 00:24:46 10° NNE 00:29:34 35° E 00:34:18 10° SSE
STARLINK-1445 4.1 00:27:59 10° WSW 00:28:34 14° WSW 00:28:34 14° WSW
STARLINK-1407 4.1 00:28:01 10° WSW 00:28:35 14° WSW 00:28:35 14° WSW
STARLINK-1311 4.4 00:28:27 15° S 00:29:39 19° SSE 00:31:51 10° ESE
STARLINK-1405 4.5 00:28:04 10° WSW 00:28:09 11° WSW 00:28:09 11° WSW
STARLINK-1446 4.1 00:28:01 10° WSW 00:28:37 14° WSW 00:28:37 14° WSW
STARLINK-1370 4.1 00:28:03 10° WSW 00:28:38 14° WSW 00:28:38 14° WSW
STARLINK-1439 4.5 00:28:07 10° WSW 00:28:13 11° WSW 00:28:13 11° WSW
STARLINK-1456 4.2 00:28:05 10° WSW 00:28:32 13° WSW 00:28:32 13° WSW
STARLINK-1457 4.2 00:28:06 10° WSW 00:28:33 13° WSW 00:28:33 13° WSW
STARLINK-1451 4.2 00:28:06 10° WSW 00:28:33 13° WSW 00:28:33 13° WSW
STARLINK-1409 4.2 00:28:06 10° WSW 00:28:33 13° WSW 00:28:33 13° WSW
STARLINK-1447 4.1 00:28:07 10° WSW 00:28:41 14° WSW 00:28:41 14° WSW
STARLINK-1455 4.1 00:28:07 10° WSW 00:28:41 14° WSW 00:28:41 14° WSW
STARLINK-1437 4.2 00:28:08 10° WSW 00:28:38 13° WSW 00:28:38 13° WSW
STARLINK-1441 4.1 00:28:09 10° WSW 00:28:44 14° WSW 00:28:44 14° WSW
STARLINK-1443 4.0 00:28:11 10° WSW 00:28:52 14° SW 00:28:52 14° SW
STARLINK-1351 4.1 00:28:13 10° WSW 00:28:48 14° WSW 00:28:48 14° WSW
STARLINK-1418 4.1 00:28:13 10° WSW 00:28:48 14° WSW 00:28:48 14° WSW
STARLINK-1403 4.1 00:28:14 10° WSW 00:28:52 14° SW 00:28:52 14° SW
STARLINK-1434 4.0 00:28:14 10° WSW 00:28:54 14° SW 00:28:54 14° SW
STARLINK-1442 4.1 00:28:15 10° WSW 00:28:50 14° WSW 00:28:50 14° WSW
STARLINK-1448 4.1 00:28:17 10° WSW 00:28:51 14° WSW 00:28:51 14° WSW
STARLINK-1433 4.1 00:28:17 10° WSW 00:28:51 14° WSW 00:28:51 14° WSW
STARLINK-1449 4.1 00:28:20 10° WSW 00:28:56 14° WSW 00:28:56 14° WSW
STARLINK-1438 4.2 00:28:22 10° WSW 00:28:49 13° WSW 00:28:49 13° WSW
STARLINK-1411 4.2 00:28:30 10° WSW 00:29:01 13° WSW 00:29:01 13° WSW
STARLINK-1412 4.1 00:28:30 10° WSW 00:29:05 14° WSW 00:29:05 14° WSW
STARLINK-1339 3.6 00:26:33 10° W 00:30:27 56° S 00:34:22 10° ESE
Cosmos-2242 3.3 00:26:36 10° NNW 00:30:45 51° W 00:34:23 13° S
Meteor 2-10 Rocket 4.3 00:26:20 10° NNW 00:31:05 38° W 00:35:16 12° SSW
Cosmos 2221 3.4 00:29:18 10° N 00:33:34 49° ENE 00:37:49 10° SSE
MOZ.5/SAFIR/RUBIN 5/SL-8 3.8 00:29:41 10° SSE 00:34:20 90° ESE 00:39:03 10° NNW
STARLINK-1377 3.6 00:30:57 10° W 00:34:52 56° S 00:38:49 10° ESE
USA 81 4.2 00:30:17 13° SSW 00:35:03 69° W 00:40:22 10° N
USA 215 4.0 00:29:50 10° SSE 00:35:30 30° SW 00:41:11 10° WNW
BREEZE-M R/B 3.5 00:32:16 10° WSW 00:37:27 35° S 00:40:26 10° ESE
Cosmos 1953 Rocket 3.7 00:33:32 12° S 00:37:35 75° E 00:41:59 10° NNE
STARLINK-42 4.1 00:36:26 15° SSW 00:38:19 25° SSE 00:40:57 10° E
GP-B 3.3 00:33:59 10° N 00:38:28 72° E 00:42:53 10° S
STARLINK-1353 3.6 00:35:16 10° W 00:39:12 56° S 00:43:08 10° ESE
STARLINK-60 4.1 00:37:06 10° W 00:39:42 23° SSW 00:42:17 10° SSE
FALCON 9 DEB 3.5 00:37:08 10° W 00:40:25 42° SSW 00:43:43 10° ESE
Cosmos 1315 Rocket 3.4 00:36:34 10° N 00:40:27 56° ENE 00:44:21 10° SSE
SeaSat 1 3.8 00:35:59 10° NNE 00:40:28 36° NW 00:44:57 10° WSW
Cosmos 1842 Rocket 3.9 00:36:04 10° N 00:40:34 66° ENE 00:45:00 10° SSE
STARLINK-41 4.1 00:40:10 14° SSW 00:42:02 24° SSE 00:44:35 10° E
CZ-4C R/B 3.6 00:39:06 10° SSE 00:43:31 87° WSW 00:48:00 10° NNW
STARLINK-1375 3.6 00:39:36 10° W 00:43:33 56° S 00:47:29 10° ESE
Cosmos 540 Rocket 3.5 00:41:07 12° SSW 00:45:54 86° ESE 00:51:04 10° NNE
Helios 1B rocket 3.2 00:42:30 10° N 00:46:28 45° WNW 00:50:24 10° SW
STARLINK-1350 3.6 00:43:56 10° W 00:47:52 55° S 00:51:49 10° ESE
Cosmos 2360 Rocket 4.4 00:47:25 10° SE 00:50:38 16° E 00:53:52 10° ENE
STARLINK-1352 3.6 00:48:11 10° W 00:52:06 55° S 00:56:02 10° ESE
STARLINK-1290 4.5 00:50:11 12° SSW 00:52:57 27° SSE 00:56:09 10° E
Meteor 1-29 3.6 00:51:54 10° N 00:55:08 44° WNW 00:58:11 11° SW
STARLINK-1368 3.6 00:52:45 10° W 00:56:42 54° S 01:00:38 10° ESE
Cosmos 1455 3.9 00:54:31 10° NW 00:57:14 19° W 00:59:58 10° SW
Cosmos 1980 Rocket 2.3 00:51:50 11° SSW 00:57:18 82° ESE 01:03:01 10° NE
Cosmos 2074 Rocket 4.2 00:51:42 10° S 00:57:58 75° E 01:04:15 10° NNE
CZ-4B R/B 4.5 00:53:30 10° NNE 00:58:30 43° E 01:03:31 10° S
STARLINK-1317 4.4 00:56:33 11° SW 00:59:53 31° SSE 01:03:23 10° E
STARLINK-1369 3.6 00:57:10 10° W 01:01:07 53° S 01:05:02 10° ESE
Cosmos 1328 4.3 00:59:35 11° SSW 01:03:19 49° WNW 01:07:13 10° N
STARLINK-55 3.7 01:00:36 10° SW 01:03:32 34° SSE 01:06:30 10° E
STARLINK-1274 4.2 01:00:55 11° SW 01:03:52 29° SSE 01:06:59 10° E
STARLINK-43 3.6 01:01:14 10° WSW 01:04:47 47° SSE 01:08:21 10° E
STARLINK-1372 3.7 01:01:24 10° W 01:05:19 53° S 01:09:14 10° ESE
STARLINK-1291 4.3 01:04:15 10° SW 01:07:33 32° SSE 01:10:54 10° E
ADEOS II 3.6 01:02:52 10° NNE 01:07:35 32° E 01:12:14 10° SSE
Cosmos 2369 4.1 01:02:40 10° SW 01:08:16 62° NW 01:13:55 10° NNE
Cosmos 2263 Rocket 2.5 01:03:28 10° NW 01:08:50 46° WSW 01:14:07 10° S
Meteor 1-11 4.3 01:03:58 10° SSW 01:09:34 83° WNW 01:15:13 10° NNE
Cosmos 1703 4.1 01:05:55 10° SW 01:09:38 40° WNW 01:13:21 10° N
STARLINK-1378 3.7 01:06:02 10° W 01:09:56 52° S 01:13:52 10° ESE
STARLINK-1264 4.2 01:07:29 10° SW 01:10:51 32° SSE 01:14:14 10° E
STARLINK-29 4.1 01:09:52 10° W 01:12:30 23° SSW 01:15:07 10° SSE
AQUA 4.5 01:08:07 10° NNE 01:12:49 52° E 01:17:27 10° S
Cosmos 1825 Rocket 4.4 01:08:46 10° SW 01:12:52 41° WNW 01:17:02 10° N
SL-4 R/B 3.4 01:09:54 10° W 01:13:50 25° SSW 01:17:41 10° SSE
STARLINK-1267 4.2 01:10:49 10° SW 01:14:12 33° SSE 01:17:36 10° E
STARLINK-1379 3.7 01:10:31 10° W 01:14:26 51° S 01:18:21 10° ESE
USA 229 DEB 4.2 01:07:53 10° NW 01:14:43 47° SW 01:21:52 10° SSE
USA 229 4.1 01:08:00 10° NW 01:14:49 48° SW 01:21:59 10° SSE
STARLINK-28 3.6 01:12:00 10° SW 01:15:00 38° SSE 01:18:02 10° E
NOSS 3-1 (C) 4.3 01:08:37 10° NW 01:15:31 46° SW 01:23:27 10° SSE
NPP 3.9 01:11:21 10° NNE 01:16:46 67° ESE 01:22:08 10° S
UNK 4.0 01:12:21 10° S 01:16:51 53° W 01:21:22 10° NNW
ARIANE 5 R/B 4.4 01:13:10 10° NE 01:17:14 24° E 01:21:15 10° SE
STARLINK-1329 3.7 01:14:18 10° W 01:18:13 50° SSW 01:22:08 10° ESE
NOSS 2-1 (D) 4.4 01:17:06 10° S 01:20:04 28° SE 01:23:20 10° ENE
STARLINK-1207 4.1 01:17:29 10° SW 01:20:56 35° SSE 01:24:24 10° E
STARLINK-1362 3.8 01:18:49 10° W 01:22:44 49° SSW 01:26:39 10° ESE
Cosmos 1844 4.3 01:17:13 10° NNW 01:23:01 64° NE 01:28:48 10° SE
Cosmos 2184 Rocket 4.0 01:16:56 10° SSW 01:23:05 82° W 01:29:20 10° N
NOSS 3-1 (A) 4.2 01:16:45 10° NW 01:23:49 56° SW 01:32:01 10° SSE
CZ-4C R/B 2.8 01:18:32 10° WSW 01:24:00 66° NNW 01:30:40 10° NE
STARLINK-1266 4.1 01:20:51 10° SW 01:24:19 36° SSE 01:27:48 10° E
ERS-2 4.0 01:21:09 10° SE 01:24:28 34° ENE 01:27:49 10° N
BREEZE-M DEB (TANK) 3.8 01:23:17 10° SSW 01:24:40 15° SSE 01:26:33 10° ESE
STARLINK-33 3.5 01:22:17 10° SW 01:25:12 38° SSE 01:28:08 10° E
Cosmos 1892 3.6 01:23:06 10° SSE 01:26:44 46° E 01:30:23 10° NNE
STARLINK-1373 3.8 01:23:20 10° W 01:27:14 48° SSW 01:31:08 10° ESE
STARLINK-1320 3.5 01:24:30 10° W 01:27:23 34° SSW 01:30:15 10° SE
STARLINK-1284 4.0 01:24:13 10° SW 01:27:42 37° SSE 01:31:12 10° E
STARLINK-1322 3.5 01:24:51 10° W 01:27:44 34° SSW 01:30:36 10° SE
STARLINK-1324 3.5 01:25:10 10° W 01:28:02 34° SSW 01:30:54 10° SE
Cosmos 1869 3.4 01:24:19 10° NNW 01:28:09 59° W 01:31:56 10° S
BREEZE-M DEB (TANK) 2.5 01:26:19 10° WSW 01:28:14 20° S 01:30:13 10° SE
STARLINK-1294 3.5 01:25:28 10° W 01:28:21 34° SSW 01:31:14 10° SE
STARLINK-26 3.6 01:25:23 10° WSW 01:28:39 43° SSE 01:31:56 10° E
STARLINK-1261 3.5 01:25:51 10° W 01:28:44 33° SSW 01:31:35 10° SE
STARLINK-1325 3.5 01:26:12 10° W 01:29:04 33° SSW 01:31:56 10° SE
STARLINK-1333 3.5 01:26:35 10° W 01:29:27 33° SSW 01:32:18 10° SE
STARLINK-1334 3.5 01:26:51 10° W 01:29:43 33° SSW 01:32:35 10° SE
STARLINK-1326 3.5 01:27:10 10° W 01:30:03 33° SSW 01:32:54 10° SE
STARLINK-1323 3.5 01:27:34 10° W 01:30:25 33° SSW 01:33:17 10° SE
STARLINK-1349 3.6 01:27:51 10° W 01:30:43 33° SSW 01:33:34 10° SE
STARLINK-1336 3.6 01:28:11 10° W 01:31:03 33° SSW 01:33:54 10° SE
STARLINK-1258 4.0 01:27:37 10° SW 01:31:07 38° SSE 01:34:38 10° E
STARLINK-1331 3.6 01:28:34 10° W 01:31:25 33° SSW 01:34:17 10° SE
STARLINK-1344 3.6 01:28:52 10° W 01:31:44 33° SSW 01:34:34 10° SE
STARLINK-1390 3.8 01:27:55 10° W 01:31:50 47° SSW 01:35:43 10° ESE
STARLINK-1343 3.6 01:29:15 10° W 01:32:07 33° SSW 01:34:57 10° SE
STARLINK-1346 3.6 01:29:31 10° W 01:32:25 33° SSW 01:35:17 10° SE
STARLINK-1328 3.6 01:29:58 10° W 01:32:49 32° SSW 01:35:40 10° SE
STARLINK-1354 3.6 01:30:16 10° W 01:33:06 32° SSW 01:35:57 10° SE
STARLINK-1347 3.6 01:30:33 10° W 01:33:24 32° SSW 01:36:14 10° SE
STARLINK-1357 3.6 01:30:59 10° W 01:33:50 32° SSW 01:36:40 10° SE
STARLINK-1335 3.6 01:31:16 10° W 01:34:06 32° SSW 01:36:57 10° SE
ATLAS CENTAUR R/B 3.9 01:31:03 10° NW 01:34:17 23° N 01:37:23 10° ENE
STARLINK-1327 3.6 01:31:37 10° W 01:34:27 32° SSW 01:37:17 10° SE
STARLINK-1292 4.0 01:31:02 10° SW 01:34:33 39° SSE 01:38:04 10° E
STARLINK-1340 3.6 01:31:55 10° W 01:34:45 32° SSW 01:37:35 10° SE
STARLINK-1356 3.6 01:32:17 10° W 01:35:08 32° SSW 01:37:58 10° SE
STARLINK-1345 3.6 01:32:36 10° W 01:35:27 32° SSW 01:38:16 10° SE
STARLINK-1355 3.6 01:32:58 10° W 01:35:48 32° SSW 01:38:37 10° SE
Cosmos 2322 Rocket 2.8 01:30:39 10° S 01:36:03 50° ESE 01:41:29 10° NE
STARLINK-1321 3.6 01:33:19 10° W 01:36:09 32° SSW 01:38:58 10° SE
STARLINK-1358 3.6 01:33:42 10° W 01:36:31 31° SSW 01:39:21 10° SE
STARLINK-1332 3.6 01:33:59 10° W 01:36:49 31° SSW 01:39:38 10° SE
STARLINK-1348 3.6 01:34:19 10° W 01:37:09 31° SSW 01:39:58 10° SE
STARLINK-1330 3.6 01:34:39 10° W 01:37:29 31° SSW 01:40:18 10° SE
STARLINK-1365 3.9 01:33:53 10° W 01:37:48 45° SSW 01:41:42 10° ESE
STARLINK-1363 3.6 01:34:58 10° W 01:37:48 31° SSW 01:40:37 10° SE
In-Cosmos 22 Rocket 4.5 01:32:30 10° S 01:38:01 67° E 01:43:25 10° NNE
STARLINK-1337 3.6 01:35:22 10° W 01:38:11 31° SSW 01:41:00 10° SE
Cosmos 1461 3.8 01:33:43 10° NW 01:38:17 63° NE 01:42:58 10° ESE
STARLINK-1342 3.6 01:35:41 10° W 01:38:30 31° SSW 01:41:19 10° SE
Resurs 1-4 Rocket 2.2 01:33:24 10° NNE 01:38:44 78° WNW 01:44:03 10° SSW
STARLINK-1364 3.6 01:36:01 10° W 01:38:50 31° SSW 01:41:39 10° SE
STARLINK-1376 3.7 01:36:21 10° W 01:39:10 31° SSW 01:41:58 10° SE
STARLINK-1360 3.7 01:36:41 10° W 01:39:30 31° SSW 01:42:19 10° SE
STARLINK-1361 3.7 01:37:02 10° W 01:39:51 31° SSW 01:42:39 10° SE
